North Myrtle Beach, SC

9:44 PM EST on December 13, 2019 (GMT -0500)
Grand Strand

Weather History for KCRE - November, 2019

Change the Weather History Date:

Thursday, November 14, 2019

  Actual Average Record
Temperature  
Mean Temperature 44 °F 57 °F  
Max Temperature 55 °F 67 °F 82 °F (1931)
Min Temperature 33 °F 47 °F 23 °F (2013)
Degree Days  
Heating Degree Days 21 8  
Month to date heating degree days 143 99  
Since 1 July heating degree days 155 189  
Cooling Degree Days 0 0  
Month to date cooling degree days 1 12  
Year to date cooling degree days 2380 1895  
Moisture  
Dew Point 37 °F    
Average Humidity 73    
Maximum Humidity 86    
Minimum Humidity 59    
Precipitation  
Precipitation 0.05 in 0.09 in 0.75 in (1952)
Month to date precipitation 2.24 1.42  
Year to date precipitation 48.95 46.93  
Sea Level Pressure  
Sea Level Pressure 30.29 in    
Wind  
Wind Speed 9 mph (NNE)    
Max Wind Speed 15 mph    
Max Gust Speed 19 mph    
Visibility 10 miles    
Events Rain    
T = Trace of Precipitation, MM = Missing Value Source: NWS Daily Summary

Daily Weather History Graph

Daily Weather History Graph

Search for Another Location

Airport or City:

Astronomy

Nov. 14, 2019 Rise Set
Actual Time 6:45 AM EST 5:12 PM EST
Civil Twilight 6:19 AM EST 5:38 PM EST
Nautical Twilight 5:49 AM EST 6:08 PM EST
Astronomical Twilight 5:19 AM EST 6:38 PM EST
Moon 7:00 PM EST 8:36 AM EST
Length of Visible Light 11h 19m
Length of Day
10h 26m
Waning Gibbous, 95% of the Moon is Illuminated
Nov 14
Waning Gibbous
Nov 19
Last Quarter
Nov 26
New
Dec 4
First Quarter
Dec 12
Full

Hourly Weather History & Observations

Time (EST) Temp. Windchill Dew Point Humidity Pressure Visibility Wind Dir Wind Speed Gust Speed Precip Events Conditions
1:53 AM 33.1 °F 24.9 °F 25.0 °F 72% 30.35 in 10.0 mi NNE 10.4 mph - N/A   Scattered Clouds
2:19 AM 34.0 °F 26.0 °F 25.0 °F 70% 30.34 in 10.0 mi NNE 10.4 mph - N/A   Mostly Cloudy
2:53 AM 35.1 °F 26.9 °F 26.1 °F 70% 30.33 in 10.0 mi NNE 11.5 mph - N/A   Overcast
3:13 AM 34.0 °F 26.0 °F 25.0 °F 70% 30.33 in 10.0 mi NNE 10.4 mph - N/A   Scattered Clouds
3:53 AM 34.0 °F 25.5 °F 25.0 °F 70% 30.32 in 10.0 mi NNE 11.5 mph - N/A   Mostly Cloudy
4:53 AM 37.0 °F 29.8 °F 27.0 °F 67% 30.32 in 10.0 mi North 10.4 mph - N/A   Overcast
5:34 AM 35.1 °F 27.4 °F 27.0 °F 72% 30.33 in 10.0 mi North 10.4 mph - N/A   Mostly Cloudy
5:53 AM 35.1 °F 27.9 °F 27.0 °F 72% 30.33 in 10.0 mi NNE 9.2 mph - N/A   Mostly Cloudy
6:06 AM 35.1 °F 27.4 °F 27.0 °F 72% 30.34 in 10.0 mi NNE 10.4 mph - N/A   Mostly Cloudy
6:15 AM 35.1 °F 27.4 °F 27.0 °F 72% 30.33 in 10.0 mi North 10.4 mph - N/A   Overcast
6:36 AM 37.0 °F 29.8 °F 28.0 °F 70% 30.34 in 10.0 mi North 10.4 mph - N/A   Overcast
6:53 AM 37.0 °F 30.4 °F 28.9 °F 73% 30.35 in 10.0 mi North 9.2 mph - N/A   Overcast
7:53 AM 39.9 °F 32.9 °F 32.0 °F 73% 30.35 in 10.0 mi NNE 11.5 mph - N/A   Overcast
8:33 AM 42.1 °F 35.2 °F 34.0 °F 73% 30.35 in 10.0 mi NE 12.7 mph - N/A   Mostly Cloudy
8:53 AM 43.0 °F 37.2 °F 33.1 °F 68% 30.35 in 10.0 mi NNE 10.4 mph - N/A   Partly Cloudy
9:53 AM 46.0 °F 40.6 °F 35.1 °F 66% 30.35 in 10.0 mi NE 11.5 mph - N/A   Mostly Cloudy
10:53 AM 48.9 °F - 37.0 °F 64% 30.33 in 10.0 mi NNE 10.4 mph - N/A   Clear
11:53 AM 52.0 °F - 41.0 °F 66% 30.30 in 10.0 mi NNE 8.1 mph - N/A   Mostly Cloudy
12:53 PM 52.0 °F - 41.0 °F 66% 30.27 in 10.0 mi NNE 11.5 mph - N/A   Overcast
1:53 PM 55.0 °F - 44.1 °F 67% 30.25 in 10.0 mi NE 9.2 mph - N/A   Overcast
2:53 PM 54.0 °F - 45.0 °F 72% 30.24 in 10.0 mi North 6.9 mph - N/A   Overcast
3:53 PM 54.0 °F - 45.0 °F 72% 30.25 in 10.0 mi North 6.9 mph - N/A   Overcast
4:53 PM 53.1 °F - 46.0 °F 77% 30.23 in 10.0 mi North 5.8 mph - N/A   Mostly Cloudy
5:37 PM 53.1 °F - 46.0 °F 77% 30.24 in 10.0 mi North 6.9 mph - N/A   Mostly Cloudy
5:53 PM 53.1 °F - 45.0 °F 74% 30.24 in 10.0 mi North 8.1 mph - N/A   Overcast
6:53 PM 53.1 °F - 45.0 °F 74% 30.25 in 10.0 mi North 6.9 mph - N/A   Overcast
7:53 PM 52.0 °F - 45.0 °F 77% 30.23 in 10.0 mi NNE 9.2 mph - N/A   Overcast
8:53 PM 52.0 °F - 45.0 °F 77% 30.24 in 10.0 mi North 5.8 mph - N/A   Overcast
9:53 PM 50.0 °F - 46.9 °F 89% 30.23 in 8.0 mi North 5.8 mph - 0.03 in Rain Light Rain
10:53 PM 50.0 °F - 46.9 °F 89% 30.22 in 6.0 mi NNE 10.4 mph - 0.00 in Rain Light Rain
11:05 PM 50.0 °F - 48.0 °F 93% 30.21 in 2.5 mi North 8.1 mph - 0.02 in Rain Rain
11:14 PM 50.0 °F - 48.0 °F 93% 30.21 in 8.0 mi NNE 9.2 mph - 0.02 in Rain Light Rain
11:53 PM 50.0 °F - 46.9 °F 89% 30.20 in 10.0 mi North 9.2 mph - 0.02 in   Overcast